[[[{"header":{"parameterUnit":"kt","parameterCategory":2,"dx":1,"dy":1,"la1":30.253999710083008,"la2":30.299108505249023,"lo1":-89.0895004272461,"lo2":-89.04439544677734,"nx":28,"ny":28,"refTime":"2022-10-08T21:00:00:Z","depth":0,"parameterNumber":1,"parameterNumberName":"U-component_of_WINDS"},"data":[-4.5214,-4.5255,-4.5231,-4.5268,-4.5252,-4.5273,-4.5273,-4.5271,-4.5263,-4.5286,-4.5295,-4.5276,-4.5259,-4.5265,-4.5274,-4.5265,-4.5272,-4.5304,-4.5289,-4.5164,-4.5145,-4.5127,-4.5116,-4.5305,-4.5306,-4.5421,-4.5422,-4.5423,-4.5127,-4.5113,-4.5124,-4.512,-4.513,-4.5084,-4.5077,-4.5089,-4.5109,-4.5099,-4.5106,-4.5125,-4.5136,-4.5108,-4.5115,-4.5135,-4.5114,-4.5139,-4.5138,-4.5136,-4.5002,-4.499,-4.5155,-4.5155,-4.5155,-4.5155,-4.5155,-4.5155,-4.4963,-4.4989,-4.4971,-4.4983,-4.4974,-4.4971,-4.4992,-4.4966,-4.4978,-4.4981,-4.495,-4.4972,-4.4958,-4.4955,-4.4948,-4.4965,-4.4934,-4.4953,-4.4958,-4.4964,-4.4975,-4.4814,-4.4965,-4.4964,-4.4964,-4.4963,-4.4963,0,-4.4836,-4.4814,-4.4823,-4.4825,-4.4832,-4.4832,-4.4827,-4.4839,-4.4783,-4.4795,-4.481,-4.4815,-4.4825,-4.4837,-4.4838,-4.4826,-4.4781,-4.4773,-4.4786,-4.4803,-4.4818,-4.4812,-4.4596,-4.4769,-4.4767,-4.4766,-4.4765,-4.4764,-4.467,-4.4702,-4.4671,-4.4681,-4.4671,-4.4688,-4.4692,-4.4641,-4.4648,-4.4635,-4.466,-4.4671,-4.4677,-4.4706,-4.4676,-4.4683,-4.4661,-4.473,-4.4662,-4.4677,-4.4664,-4.4664,-4.4667,-4.4745,-4.4748,-4.4749,-4.4751,0,-4.458,-4.4538,-4.4579,-4.4545,-4.4537,-4.4573,-4.4544,-4.4567,-4.4539,-4.4567,-4.4571,-4.4527,-4.4543,-4.4501,-4.4511,-4.4489,-4.4551,-4.4528,-4.4556,-4.4549,-4.4608,-4.4604,-4.4803,-4.4827,-4.4628,-4.463,-4.4631,0,-4.4422,-4.4466,-4.4402,-4.4427,-4.4474,-4.442,-4.4468,-4.4448,-4.4433,-4.4455,-4.4395,-4.4417,-4.4359,-4.4375,-4.4342,-4.4385,-4.4386,-4.4372,-4.4363,-4.4379,-4.4381,-4.4383,-4.4375,-4.434,-4.4339,-4.4338,-4.4337,0,-4.4286,-4.4301,-4.4342,-4.4339,-4.4306,-4.4327,-4.4315,-4.4297,-4.4302,-4.4302,-4.4305,-4.4308,-4.4311,-4.4315,-4.4273,-4.4229,-4.4323,-4.4254,-4.431,-4.4311,-4.4334,-4.4333,-4.4518,-4.4336,-4.4336,-4.4335,-4.4335,0,-4.4153,-4.4152,-4.4217,-4.4188,-4.4195,-4.4222,-4.4221,-4.4234,-4.422,-4.42,-4.42,-4.4155,-4.4187,-4.4121,-4.4165,-4.4119,-4.4126,-4.4114,-4.4118,-4.4119,-4.4047,-4.4159,-4.4338,-4.4356,-4.412,-4.4118,-4.4116,0,-4.4009,-4.4062,-4.4015,-4.4079,-4.4098,-4.4029,-4.4058,-4.4046,-4.4022,-4.4036,-4.4009,-4.4025,-4.3966,-4.3966,-4.3993,-4.3967,-4.4026,-4.3957,-4.398,-4.3981,-4.3987,-4.4151,-4.4189,-4.4303,-4.4092,-4.4095,-4.4097,0,-4.3891,-4.3849,-4.3864,-4.3858,-4.3832,-4.3847,-4.3881,-4.3883,-4.3895,-4.3888,-4.3915,-4.3935,-4.3892,-4.3891,-4.3855,-4.3885,-4.3984,-4.3835,-4.3834,-4.3865,-4.4076,-4.4112,-4.4132,-4.3953,-4.3956,-4.3958,-4.4078,0,-4.3702,-4.3723,-4.3759,-4.3747,-4.3752,-4.3788,-4.3741,-4.3752,-4.3716,-4.3689,-4.3728,-4.3707,-4.371,-4.3719,-4.3684,-4.3767,-4.3747,-4.3701,-4.3634,-4.3742,-4.378,-4.3796,-4.3581,-4.3579,-4.3577,-4.3575,0,0,-4.3576,-4.3603,-4.355,-4.3579,-4.358,-4.3506,-4.3549,-4.3542,-4.3528,-4.353,-4.3492,-4.3518,-4.3502,-4.3555,-4.3584,-4.3585,-4.3596,-4.356,-4.369,-4.3704,-4.3715,-4.3757,-4.3774,-4.3572,-4.3571,-4.3571,-4.357,0,-4.3497,-4.348,-4.3522,-4.3511,-4.3493,-4.3462,-4.3472,-4.3441,-4.3426,-4.3462,-4.3402,-4.3419,-4.344,-4.3432,-4.3431,-4.3552,-4.3506,-4.3556,-4.3638,-4.3673,-4.3689,-4.3702,-4.3747,-4.3763,-4.3565,-4.3566,-4.3566,0,-4.3374,-4.335,-4.3365,-4.3361,-4.3348,-4.3369,-4.3287,-4.3312,-4.3327,-4.3246,-4.3283,-4.3265,-4.325,-4.3304,-4.3327,-4.3293,-4.3428,-4.3376,-4.3387,-4.3388,-4.342,-4.3439,-4.3456,-4.3236,-4.3235,-4.3234,0,0,-4.3312,-4.333,-4.3288,-4.334,-4.3336,-4.329,-4.3296,-4.326,-4.3247,-4.3242,-4.3217,-4.3207,-4.3219,-4.3228,-4.3236,-4.3302,-4.3296,-4.3337,-4.3353,-4.3366,-4.3375,-4.341,-4.3429,-4.3231,-4.3231,-4.323,0,0,-4.3283,-4.3235,-4.32,-4.3255,-4.3244,-4.3207,-4.3241,-4.3198,-4.32,-4.3191,-4.3132,-4.3126,-4.3176,-4.3161,-4.3118,-4.3212,-4.3147,-4.3156,-4.322,-4.3239,-4.3254,-4.3257,-4.3031,0,0,0,0,0,-4.3177,-4.3241,-4.321,-4.3212,-4.3206,-4.3224,-4.3223,-4.3175,-4.313,-4.3158,-4.3131,-4.3081,-4.3126,-4.3086,-4.309,-4.3138,-4.3184,-4.3192,-4.32,-4.3298,-4.3319,-4.3336,0,0,0,0,0,0,-4.3177,-4.318,-4.3208,-4.3174,-4.3172,-4.3221,-4.3134,-4.3123,-4.3126,-4.3115,-4.3088,-4.308,-4.304,-4.3081,-4.3085,-4.3132,-4.303,-4.3187,-4.3194,-4.3201,-4.3305,-4.3322,-4.3336,0,0,0,0,0,-4.3177,-4.3179,-4.3182,-4.3172,-4.3171,-4.3123,-4.3131,-4.3121,-4.3122,-4.308,-4.307,-4.3086,-4.3042,-4.3042,-4.3083,-4.3132,-4.3027,-4.3029,-4.3192,-4.3197,-4.3202,-4.3314,0,0,0,0,0,0,-4.3177,-4.317,-4.3181,-4.3179,-4.3144,-4.3119,-4.3113,-4.312,-4.3086,-4.3077,-4.3075,-4.3068,-4.3045,-4.3044,-4.3045,-4.3134,-4.3025,-4.3026,-4.3027,-4.3196,-4.32,-4.3204,0,0,0,0,0,0,-4.3169,-4.3169,-4.318,-4.3147,-4.314,-4.3116,-4.3111,-4.3138,-4.3086,-4.3083,-4.3075,-4.3072,-4.3045,-4.3046,-4.3046,-4.3091,-4.3023,-4.3024,-4.3025,-4.3026,-4.32,-4.3203,0,0,0,0,0,0,-4.3168,-4.3168,-4.3147,-4.3142,-4.3136,-4.3108,-4.3139,-4.3136,-4.3057,-4.3085,-4.3049,-4.3045,-4.3049,-4.3047,-4.3048,-4.3093,-4.3092,-4.3023,-4.3024,-4.3025,-4.3025,0,0,0,0,0,0,0,-4.3167,-4.3178,-4.3194,-4.3138,-4.3133,-4.3158,-4.3158,-4.3157,-4.3056,-4.3053,-4.305,-4.3046,-4.3014,-4.3016,-4.3017,-4.3095,0,0,-4.3023,-4.3023,0,0,0,0,0,0,0,0,-4.3177,-4.3178,-4.3194,-4.3193,-4.3193,-4.3158,-4.3158,-4.3157,-4.3056,-4.3053,-4.305,-4.3048,-4.3014,-4.3016,-4.3017,0,0,0,0,0,0,0,0,0,0,0,0,0,0,0,-4.3194,-4.3193,0,-4.3158,-4.3158,-4.3157,-4.3055,-4.3053,-4.3051,-4.3049,-4.3015,-4.3016,-4.3017,0,0,0,0,0,0,0,0,0,0,0,0,0,0,0,0,0,0,0,0,0,0,0,0,0,0,0,0,0,0,0,0,0,0,0,0,0,0,0,0,0,0,0,0,0,0,0,0,0,0,0,0,0,0,0,0,0,0,0,0,0,0,0,0,0,0,0,0,0]}],[{"header":{"parameterUnit":"kt","parameterCategory":2,"dx":1,"dy":1,"la1":30.253999710083008,"la2":30.299108505249023,"lo1":-89.0895004272461,"lo2":-89.04439544677734,"nx":28,"ny":28,"refTime":"2022-10-08T21:00:00:Z","depth":0,"parameterNumber":2,"parameterNumberName":"V-component_of_WINDS"},"data":[-7.448,-7.4596,-7.4648,-7.4805,-7.4877,-7.4992,-7.5049,-7.5129,-7.5204,-7.5345,-7.5436,-7.5496,-7.5589,-7.5707,-7.5806,-7.583,-7.587,-7.5876,-7.5904,-7.5832,-7.5825,-7.5818,-7.5796,-7.5883,-7.5883,-7.5973,-7.5974,-7.5974,-7.4429,-7.4502,-7.4599,-7.4728,-7.4811,-7.4837,-7.494,-7.5008,-7.5109,-7.5201,-7.5292,-7.5419,-7.5525,-7.5617,-7.5727,-7.5781,-7.5799,-7.5808,-7.5806,-7.582,-7.5744,-7.572,-7.5792,-7.5792,-7.5792,-7.5792,-7.5792,-7.5792,-7.4351,-7.4418,-7.4526,-7.4631,-7.4709,-7.4793,-7.4866,-7.494,-7.5033,-7.5155,-7.5194,-7.5308,-7.5408,-7.5562,-7.5624,-7.5714,-7.5713,-7.5737,-7.5744,-7.575,-7.5752,-7.5622,-7.5734,-7.5734,-7.5734,-7.5734,-7.5734,0,-7.431,-7.4348,-7.4443,-7.4555,-7.4634,-7.4723,-7.4813,-7.4859,-7.4952,-7.5024,-7.5134,-7.5204,-7.5343,-7.545,-7.5562,-7.5623,-7.5654,-7.5661,-7.5679,-7.5664,-7.5638,-7.5657,-7.5534,-7.5657,-7.5657,-7.5656,-7.5656,-7.5656,-7.4238,-7.4308,-7.4443,-7.4503,-7.4565,-7.4659,-7.4725,-7.4802,-7.4869,-7.4989,-7.5043,-7.5151,-7.5241,-7.5404,-7.5486,-7.5588,-7.5604,-7.5647,-7.562,-7.5604,-7.561,-7.5606,-7.5615,-7.5651,-7.5652,-7.5652,-7.5653,0,-7.4193,-7.4274,-7.4398,-7.4523,-7.4557,-7.4626,-7.4733,-7.48,-7.4863,-7.4965,-7.4993,-7.5089,-7.5193,-7.5268,-7.5399,-7.5435,-7.5552,-7.5563,-7.552,-7.5528,-7.5576,-7.5571,-7.5713,-7.5737,-7.5643,-7.5644,-7.5645,0,-7.4164,-7.4252,-7.4368,-7.4435,-7.4536,-7.4611,-7.4709,-7.4772,-7.4858,-7.4939,-7.4987,-7.5061,-7.5145,-7.523,-7.5282,-7.539,-7.5413,-7.5448,-7.5462,-7.5446,-7.5442,-7.5482,-7.5479,-7.5484,-7.5483,-7.5483,-7.5482,0,-7.4087,-7.425,-7.436,-7.441,-7.455,-7.4599,-7.4659,-7.4756,-7.4818,-7.4911,-7.4953,-7.5053,-7.5109,-7.5187,-7.5254,-7.5233,-7.5386,-7.5371,-7.5421,-7.542,-7.5452,-7.5449,-7.5555,-7.5481,-7.5481,-7.548,-7.548,0,-7.4076,-7.4171,-7.4316,-7.4435,-7.4475,-7.4545,-7.4652,-7.473,-7.4827,-7.4866,-7.4938,-7.4979,-7.5076,-7.5057,-7.5193,-7.5148,-7.52,-7.5241,-7.5246,-7.5261,-7.5238,-7.5291,-7.5381,-7.5395,-7.5274,-7.5272,-7.527,0,-7.3969,-7.4136,-7.4202,-7.4337,-7.4425,-7.4476,-7.4555,-7.4639,-7.4698,-7.478,-7.4842,-7.4934,-7.4935,-7.4974,-7.5031,-7.5099,-7.5157,-7.5093,-7.5211,-7.5214,-7.5188,-7.5271,-7.5268,-7.5353,-7.5249,-7.5251,-7.5253,0,-7.3895,-7.4064,-7.4083,-7.4145,-7.4268,-7.434,-7.443,-7.4538,-7.459,-7.4676,-7.4755,-7.4882,-7.489,-7.4952,-7.4994,-7.505,-7.512,-7.5049,-7.5053,-7.5062,-7.5243,-7.524,-7.5254,-7.5136,-7.5139,-7.5141,-7.5236,0,-7.3867,-7.3959,-7.4014,-7.4142,-7.4209,-7.4295,-7.4376,-7.4436,-7.4472,-7.453,-7.4644,-7.4729,-7.4835,-7.4868,-7.4901,-7.5004,-7.4999,-7.5004,-7.4991,-7.5044,-7.5078,-7.5091,-7.4935,-7.4935,-7.4935,-7.4935,0,0,-7.3746,-7.3879,-7.3946,-7.4037,-7.4098,-7.4148,-7.4234,-7.4298,-7.4425,-7.4466,-7.446,-7.4651,-7.4719,-7.4848,-7.4871,-7.4912,-7.4938,-7.4915,-7.5017,-7.5026,-7.5035,-7.5069,-7.5082,-7.4936,-7.4936,-7.4936,-7.4936,0,-7.3753,-7.3824,-7.3908,-7.3979,-7.4085,-7.4143,-7.4163,-7.4276,-7.4317,-7.4428,-7.4465,-7.4542,-7.4689,-7.4759,-7.4813,-7.4902,-7.4925,-7.4927,-7.4951,-7.5015,-7.5024,-7.5032,-7.5067,-7.5078,-7.4936,-7.4936,-7.4936,0,-7.3697,-7.3782,-7.383,-7.397,-7.4039,-7.4125,-7.4133,-7.4222,-7.4287,-7.4332,-7.444,-7.4497,-7.4594,-7.4704,-7.4756,-7.4751,-7.491,-7.4871,-7.4873,-7.488,-7.4946,-7.4956,-7.4965,-7.4845,-7.4844,-7.4843,0,0,-7.3692,-7.3777,-7.3889,-7.3977,-7.4018,-7.4104,-7.4157,-7.4198,-7.4285,-7.4319,-7.4393,-7.4475,-7.4563,-7.4618,-7.4704,-7.4812,-7.4839,-7.4857,-7.4861,-7.4864,-7.4873,-7.494,-7.495,-7.4841,-7.4841,-7.4841,0,0,-7.3688,-7.3824,-7.3845,-7.3956,-7.404,-7.4155,-7.4205,-7.4232,-7.4317,-7.4316,-7.4386,-7.441,-7.4514,-7.4567,-7.4527,-7.4701,-7.4687,-7.4697,-7.4663,-7.4669,-7.4673,-7.4659,-7.4545,0,0,0,0,0,-7.3737,-7.3808,-7.3825,-7.3856,-7.4029,-7.4145,-7.4168,-7.4229,-7.4219,-7.4258,-7.4324,-7.4344,-7.4561,-7.4528,-7.4556,-7.4599,-7.4811,-7.4816,-7.4821,-7.4803,-7.4808,-7.4814,0,0,0,0,0,0,-7.3749,-7.3786,-7.3824,-7.394,-7.398,-7.4143,-7.4141,-7.4159,-7.4217,-7.4219,-7.4331,-7.4348,-7.44,-7.4517,-7.4542,-7.4582,-7.4537,-7.4813,-7.4818,-7.4822,-7.4805,-7.4809,-7.4814,0,0,0,0,0,-7.3759,-7.379,-7.4052,-7.394,-7.3974,-7.4073,-7.4138,-7.4154,-7.4199,-7.43,-7.4318,-7.424,-7.44,-7.4424,-7.4532,-7.457,-7.452,-7.4529,-7.4816,-7.482,-7.4823,-7.4807,0,0,0,0,0,0,-7.3767,-7.3804,-7.406,-7.4073,-7.3918,-7.4065,-7.4091,-7.4149,-7.4278,-7.4296,-7.4212,-7.4213,-7.44,-7.4419,-7.4438,-7.4562,-7.4507,-7.4516,-7.4522,-7.4819,-7.4822,-7.4824,0,0,0,0,0,0,-7.3788,-7.3814,-7.4067,-7.4035,-7.4045,-7.4058,-7.408,-7.4179,-7.4278,-7.4182,-7.4187,-7.4211,-7.4371,-7.4416,-7.4431,-7.4582,-7.4497,-7.4505,-7.4511,-7.4515,-7.4821,-7.4823,0,0,0,0,0,0,-7.38,-7.3823,-7.4032,-7.4039,-7.4048,-7.4195,-7.4146,-7.4319,-7.4254,-7.4176,-7.4249,-7.4247,-7.4367,-7.4383,-7.4426,-7.457,-7.4579,-7.4497,-7.4503,-7.4507,-7.451,0,0,0,0,0,0,0,-7.381,-7.3646,-7.3985,-7.4043,-7.405,-7.419,-7.4194,-7.4197,-7.4253,-7.4251,-7.425,-7.4248,-7.4447,-7.4457,-7.4466,-7.4561,0,0,-7.4496,-7.45,0,0,0,0,0,0,0,0,-7.3638,-7.3644,-7.3985,-7.3988,-7.3991,-7.4191,-7.4194,-7.4197,-7.4253,-7.4251,-7.425,-7.4249,-7.445,-7.4458,-7.4465,0,0,0,0,0,0,0,0,0,0,0,0,0,0,0,-7.3986,-7.3988,0,-7.4191,-7.4194,-7.4196,-7.4253,-7.4251,-7.425,-7.4249,-7.4452,-7.4458,-7.4465,0,0,0,0,0,0,0,0,0,0,0,0,0,0,0,0,0,0,0,0,0,0,0,0,0,0,0,0,0,0,0,0,0,0,0,0,0,0,0,0,0,0,0,0,0,0,0,0,0,0,0,0,0,0,0,0,0,0,0,0,0,0,0,0,0,0,0,0,0]}]]]